| time (UTC) | temp F | wind direction | speed knots | gust knots | rain 1hr in | rain 24hr in | rain mn in | humidity % | barometer mb |
| 20260902031536 | 63 | 194 | 0.0 | 2.6 | 0.00 | 0.00 | 0.00 | 70 | 1012.5 |
| 20260902030018 | 64 | 184 | 0.0 | 2.6 | 0.00 | 0.00 | 0.00 | 69 | 1012.6 |
| 20260902024525 | 64 | 184 | 0.9 | 2.6 | 0.00 | 0.00 | 0.00 | 68 | 1012.5 |
| 20260902023014 | 65 | 112 | 0.9 | 6.1 | 0.00 | 0.00 | 0.00 | 67 | 1012.3 |
| 20260902021512 | 65 | 130 | 1.7 | 3.5 | 0.00 | 0.00 | 0.00 | 67 | 1012.4 |
| 20260902020022 | 65 | 195 | 1.7 | 5.2 | 0.00 | 0.00 | 0.00 | 67 | 1012.3 |
| 20260902014526 | 66 | 171 | 2.6 | 9.6 | 0.00 | 0.00 | 0.00 | 65 | 1012.3 |
| 20260902013004 | 66 | 198 | 0.9 | 7.0 | 0.00 | 0.00 | 0.00 | 66 | 1012.2 |
| 20260902011516 | 65 | 204 | 2.6 | 7.8 | 0.00 | 0.00 | 0.00 | 67 | 1012.2 |
| 20260902010015 | 65 | 178 | 2.6 | 8.7 | 0.00 | 0.00 | 0.00 | 68 | 1012.2 |
| 20260902004523 | 65 | 206 | 2.6 | 8.7 | 0.00 | 0.00 | 0.00 | 69 | 1012.1 |
| 20260902003030 | 65 | 132 | 2.6 | 5.2 | 0.00 | 0.00 | 0.00 | 69 | 1012.2 |
| 20260902001509 | 65 | 176 | 0.9 | 7.8 | 0.00 | 0.00 | 0.00 | 70 | 1012.1 |
| 20260902000011 | 65 | 231 | 2.6 | 10.4 | 0.00 | 0.00 | 0.00 | 69 | 1012.0 |
| 20260901234519 | 65 | 216 | 1.7 | 7.0 | 0.00 | 0.00 | 0.00 | 69 | 1012.0 |
| 20260901233029 | 65 | 155 | 4.3 | 9.6 | 0.00 | 0.00 | 0.00 | 70 | 1012.1 |
| 20260901231535 | 65 | 145 | 3.5 | 11.3 | 0.00 | 0.00 | 0.00 | 71 | 1012.1 |
| 20260901230010 | 64 | 205 | 2.6 | 7.8 | 0.00 | 0.00 | 0.00 | 73 | 1012.2 |
| 20260901224517 | 64 | 181 | 1.7 | 7.0 | 0.00 | 0.00 | 0.00 | 75 | 1012.3 |
| 20260901223021 | 65 | 193 | 0.0 | 2.6 | 0.00 | 0.00 | 0.00 | 74 | 1012.2 |
| 20260901221526 | 66 | 195 | 0.9 | 2.6 | 0.00 | 0.00 | 0.00 | 73 | 1012.4 |
| 20260901220008 | 67 | 315 | 0.0 | 4.3 | 0.00 | 0.00 | 0.00 | 67 | 1012.1 |
| 20260901214515 | 67 | 80 | 0.9 | 4.3 | 0.00 | 0.00 | 0.00 | 67 | 1012.0 |
| 20260901213025 | 67 | 187 | 0.9 | 4.3 | 0.00 | 0.00 | 0.00 | 68 | 1012.0 |
| 20260901211528 | 67 | 229 | 1.7 | 4.3 | 0.00 | 0.00 | 0.00 | 66 | 1012.0 |
| 20260901210029 | 67 | 102 | 0.9 | 6.1 | 0.00 | 0.00 | 0.00 | 64 | 1011.9 |
| 20260901204516 | 67 | 132 | 1.7 | 6.1 | 0.00 | 0.00 | 0.00 | 65 | 1012.0 |
| 20260901203019 | 67 | 104 | 0.0 | 3.5 | 0.00 | 0.00 | 0.00 | 67 | 1012.2 |
| 20260901201522 | 66 | 57 | 2.6 | 5.2 | 0.00 | 0.00 | 0.00 | 67 | 1012.2 |
| 20260901200028 | 66 | 120 | 1.7 | 6.1 | 0.00 | 0.00 | 0.00 | 68 | 1012.4 |
| 20260901194531 | 65 | 113 | 0.9 | 6.1 | 0.00 | 0.00 | 0.00 | 69 | 1012.3 |
| 20260901193014 | 65 | 105 | 0.9 | 3.5 | 0.00 | 0.00 | 0.00 | 70 | 1012.5 |
| 20260901191523 | 65 | 196 | 0.0 | 4.3 | 0.00 | 0.00 | 0.00 | 72 | 1012.5 |
| 20260901190030 | 65 | 113 | 1.7 | 4.3 | 0.00 | 0.00 | 0.00 | 71 | 1012.7 |
| 20260901184509 | 65 | 176 | 0.0 | 3.5 | 0.00 | 0.00 | 0.00 | 73 | 1012.8 |
| 20260901183022 | 65 | 14 | 0.9 | 3.5 | 0.00 | 0.00 | 0.00 | 73 | 1012.8 |
| 20260901181521 | 65 | 40 | 0.9 | 4.3 | 0.00 | 0.00 | 0.00 | 73 | 1012.8 |
| 20260901180001 | 65 | 38 | 0.9 | 5.2 | 0.00 | 0.00 | 0.00 | 75 | 1012.8 |
| 20260901174505 | 65 | 35 | 0.0 | 3.5 | 0.00 | 0.00 | 0.00 | 75 | 1012.9 |
| 20260901173012 | 65 | 209 | 0.9 | 4.3 | 0.00 | 0.00 | 0.00 | 74 | 1012.8 |
| 20260901171519 | 64 | 5 | 0.0 | 3.5 | 0.00 | 0.00 | 0.00 | 76 | 1012.9 |
| 20260901170004 | 63 | 117 | 0.9 | 3.5 | 0.00 | 0.00 | 0.00 | 76 | 1012.8 |
| 20260901164506 | 62 | 117 | 0.9 | 1.7 | 0.00 | 0.00 | 0.00 | 78 | 1012.8 |
| 20260901163011 | 62 | 158 | 0.9 | 6.1 | 0.00 | 0.00 | 0.00 | 79 | 1013.0 |
| 20260901161517 | 61 | 168 | 0.9 | 6.1 | 0.00 | 0.00 | 0.00 | 80 | 1013.1 |
| 20260901160022 | 60 | 84 | 0.0 | 2.6 | 0.00 | 0.00 | 0.00 | 83 | 1013.0 |
| 20260901154501 | 59 | 140 | 0.0 | 3.5 | 0.00 | 0.00 | 0.00 | 84 | 1013.0 |
| 20260901153007 | 58 | 132 | 0.0 | 3.5 | 0.00 | 0.00 | 0.00 | 85 | 1013.0 |
| 20260901151516 | 57 | 152 | 0.0 | 0.0 | 0.00 | 0.00 | 0.00 | 87 | 1013.0 |
| 20260901150020 | 56 | 254 | 0.0 | 0.0 | 0.00 | 0.00 | 0.00 | 88 | 1012.9 |
| 20260901144526 | 56 | 284 | 0.0 | 0.0 | 0.00 | 0.00 | 0.00 | 88 | 1012.8 |
| 20260901143012 | 56 | 284 | 0.0 | 0.0 | 0.00 | 0.00 | 0.00 | 88 | 1012.8 |
| 20260901141510 | 55 | 284 | 0.0 | 0.0 | 0.00 | 0.00 | 0.00 | 88 | 1012.7 |
| 20260901140022 | 55 | 284 | 0.0 | 0.0 | 0.00 | 0.00 | 0.00 | 89 | 1012.6 |
| 20260901134525 | 55 | 284 | 0.0 | 0.0 | 0.00 | 0.00 | 0.00 | 89 | 1012.4 |
| 20260901133034 | 55 | 284 | 0.0 | 0.0 | 0.00 | 0.00 | 0.00 | 89 | 1012.5 |
| 20260901131510 | 55 | 284 | 0.0 | 0.0 | 0.00 | 0.00 | 0.00 | 89 | 1012.4 |
| 20260901130020 | 55 | 284 | 0.0 | 0.9 | 0.00 | 0.00 | 0.00 | 89 | 1012.4 |
| 20260901124524 | 55 | 267 | 0.0 | 0.0 | 0.00 | 0.00 | 0.00 | 90 | 1012.3 |
| 20260901123033 | 54 | 237 | 0.0 | 0.0 | 0.00 | 0.00 | 0.00 | 90 | 1012.3 |
| 20260901121514 | 54 | 237 | 0.0 | 0.0 | 0.00 | 0.00 | 0.00 | 91 | 1012.3 |
| 20260901120015 | 54 | 237 | 0.0 | 0.0 | 0.00 | 0.00 | 0.00 | 91 | 1012.3 |
| 20260901114522 | 53 | 238 | 0.9 | 1.7 | 0.00 | 0.00 | 0.00 | 91 | 1012.2 |
| 20260901113026 | 52 | 245 | 0.0 | 1.7 | 0.00 | 0.00 | 0.00 | 92 | 1012.2 |
| 20260901111530 | 52 | 234 | 0.0 | 1.7 | 0.00 | 0.00 | 0.00 | 92 | 1012.1 |
| 20260901110010 | 51 | 244 | 0.0 | 0.0 | 0.00 | 0.00 | 0.00 | 90 | 1011.8 |
| 20260901104521 | 52 | 244 | 0.0 | 0.0 | 0.00 | 0.00 | 0.00 | 90 | 1011.7 |
| 20260901103026 | 52 | 244 | 0.0 | 0.0 | 0.00 | 0.00 | 0.00 | 89 | 1011.7 |
| 20260901101530 | 52 | 244 | 0.0 | 0.0 | 0.00 | 0.00 | 0.00 | 89 | 1011.6 |
| 20260901100032 | 53 | 256 | 0.0 | 0.0 | 0.00 | 0.00 | 0.00 | 88 | 1011.6 |
| 20260901094515 | 53 | 256 | 0.0 | 0.0 | 0.00 | 0.00 | 0.00 | 87 | 1011.6 |
| 20260901093021 | 54 | 272 | 0.0 | 0.0 | 0.00 | 0.00 | 0.00 | 87 | 1011.5 |
| 20260901091527 | 55 | 272 | 0.0 | 0.0 | 0.00 | 0.00 | 0.00 | 87 | 1011.4 |
| 20260901090032 | 55 | 272 | 0.0 | 0.0 | 0.00 | 0.00 | 0.00 | 85 | 1011.1 |
| 20260901084533 | 56 | 267 | 0.0 | 0.0 | 0.00 | 0.00 | 0.00 | 85 | 1010.9 |
| 20260901083017 | 57 | 217 | 0.0 | 0.0 | 0.00 | 0.00 | 0.00 | 84 | 1011.0 |
| 20260901081524 | 58 | 163 | 0.0 | 4.3 | 0.00 | 0.00 | 0.00 | 83 | 1011.0 |
| 20260901080030 | 58 | 146 | 1.7 | 3.5 | 0.00 | 0.00 | 0.00 | 83 | 1010.9 |
| 20260901074511 | 58 | 129 | 0.9 | 4.3 | 0.00 | 0.00 | 0.00 | 83 | 1010.8 |
| 20260901073015 | 58 | 98 | 0.0 | 2.6 | 0.00 | 0.00 | 0.00 | 83 | 1010.8 |
| 20260901071521 | 58 | 85 | 0.9 | 3.5 | 0.00 | 0.00 | 0.00 | 83 | 1010.7 |
| 20260901070026 | 58 | 121 | 0.9 | 5.2 | 0.00 | 0.00 | 0.00 | 82 | 1010.6 |
| 20260901064508 | 59 | 82 | 0.0 | 2.6 | 0.00 | 0.00 | 0.00 | 81 | 1010.4 |
| 20260901063019 | 59 | 51 | 0.0 | 1.7 | 0.00 | 0.00 | 0.00 | 80 | 1010.3 |
| 20260901061519 | 59 | 128 | 0.0 | 2.6 | 0.00 | 0.00 | 0.00 | 80 | 1010.1 |
| 20260901060038 | 60 | 46 | 0.0 | 1.7 | 0.00 | 0.00 | 0.00 | 79 | 1010.0 |
| 20260901054530 | 60 | 83 | 0.9 | 3.5 | 0.00 | 0.00 | 0.00 | 78 | 1009.8 |
| 20260901053011 | 61 | 31 | 0.0 | 1.7 | 0.00 | 0.00 | 0.00 | 77 | 1009.8 |
| 20260901051517 | 62 | 43 | 0.0 | 0.0 | 0.00 | 0.00 | 0.00 | 76 | 1009.6 |
| 20260901050023 | 62 | 73 | 0.0 | 3.5 | 0.00 | 0.00 | 0.00 | 75 | 1009.4 |
| 20260901044528 | 63 | 39 | 0.0 | 1.7 | 0.00 | 0.00 | 0.00 | 73 | 1009.5 |
| 20260901043030 | 64 | 40 | 0.0 | 0.0 | 0.00 | 0.00 | 0.00 | 71 | 1009.5 |
| 20260901041514 | 66 | 40 | 0.0 | 0.0 | 0.00 | 0.00 | 0.00 | 68 | 1009.3 |
| 20260901040023 | 67 | 68 | 0.0 | 0.0 | 0.00 | 0.00 | 0.00 | 66 | 1009.0 |
| 20260901034531 | 68 | 53 | 0.0 | 1.7 | 0.00 | 0.00 | 0.00 | 63 | 1008.7 |
| 20260901033033 | 70 | 79 | 0.0 | 1.7 | 0.00 | 0.00 | 0.00 | 60 | 1008.4 |